TimeMST,TemperatureF,Dew PointF,Humidity,Sea Level PressureIn,VisibilityMPH,Wind Direction,Wind SpeedMPH,Gust SpeedMPH,PrecipitationIn,Events,Conditions,WindDirDegrees,DateUTC
12:10 AM,26.6,24.8,93,29.57,-9999.0,NW,8.1,-,0.00,Snow,Heavy Snow,320,2012-12-08 07:10:00
12:18 AM,26.6,24.8,93,29.57,-9999.0,NNW,8.1,-,0.00,Snow,Snow,330,2012-12-08 07:18:00
12:39 AM,26.6,24.8,93,29.58,-9999.0,NNW,13.8,-,0.02,Snow,Heavy Snow,340,2012-12-08 07:39:00
12:56 AM,26.1,25.0,96,29.66,-9999.0,NNW,10.4,-,0.05,Snow,Snow,340,2012-12-08 07:56:00
1:12 AM,26.6,24.8,93,29.58,-9999.0,NNW,12.7,-,0.00,Snow,Light Snow,330,2012-12-08 08:12:00
1:26 AM,26.6,24.8,93,29.59,-9999.0,NNW,13.8,-,0.00,Snow,Light Snow,340,2012-12-08 08:26:00
1:33 AM,19.4,17.6,93,29.60,-9999.0,NNE,17.3,24.2,0.00,Snow,Light Snow,20,2012-12-08 08:33:00
1:40 AM,17.6,15.8,93,29.61,-9999.0,North,19.6,-,0.00,Snow,Light Snow,10,2012-12-08 08:40:00
1:56 AM,17.1,15.1,92,29.73,-9999.0,North,19.6,-,0.00,Snow,Light Snow,350,2012-12-08 08:56:00
2:12 AM,15.8,12.2,86,29.64,-9999.0,North,18.4,-,0.00,Snow,Light Snow,350,2012-12-08 09:12:00
2:26 AM,12.2,10.4,92,29.65,-9999.0,North,24.2,-,0.00,,Overcast,350,2012-12-08 09:26:00
2:56 AM,12.9,10.0,88,29.80,-9999.0,North,23.0,-,0.00,Snow,Light Snow,350,2012-12-08 09:56:00
3:10 AM,12.2,8.6,85,29.68,-9999.0,North,25.3,29.9,0.00,Snow,Light Snow,350,2012-12-08 10:10:00
3:26 AM,10.4,8.6,92,29.69,-9999.0,North,20.7,-,0.00,Snow,Light Snow,350,2012-12-08 10:26:00
3:56 AM,10.9,8.1,88,29.85,-9999.0,North,24.2,31.1,0.00,Snow,Light Snow,350,2012-12-08 10:56:00
4:53 AM,12.2,10.4,92,29.75,-9999.0,NNW,25.3,32.2,0.00,,Overcast,330,2012-12-08 11:53:00
4:56 AM,12.9,10.0,88,29.89,-9999.0,NNW,21.9,32.2,0.00,,Overcast,330,2012-12-08 11:56:00
5:34 AM,12.2,8.6,85,29.79,-9999.0,NNW,17.3,23.0,0.00,,Overcast,340,2012-12-08 12:34:00
5:56 AM,10.9,8.1,88,29.95,-9999.0,NNW,18.4,-,0.00,Snow,Light Snow,340,2012-12-08 12:56:00
6:56 AM,10.0,6.1,84,30.00,-9999.0,NNW,19.6,28.8,0.00,Snow,Light Snow,330,2012-12-08 13:56:00
7:56 AM,9.0,5.0,84,30.06,-9999.0,NNW,18.4,-,0.00,,Overcast,330,2012-12-08 14:56:00
8:45 AM,8.6,5.0,85,29.93,-9999.0,NNW,21.9,28.8,N/A,,Overcast,340,2012-12-08 15:45:00
8:56 AM,9.0,3.9,80,30.09,-9999.0,NNW,21.9,-,N/A,,Overcast,340,2012-12-08 15:56:00
9:41 AM,8.6,3.2,79,29.95,-9999.0,NNW,25.3,-,0.00,,Overcast,340,2012-12-08 16:41:00
9:56 AM,8.1,3.9,83,30.13,-9999.0,NNW,19.6,-,0.00,,Overcast,340,2012-12-08 16:56:00
10:56 AM,7.0,1.9,80,30.17,-9999.0,NNW,24.2,-,N/A,,Overcast,330,2012-12-08 17:56:00
11:07 AM,6.8,1.4,79,30.00,-9999.0,NNW,24.2,-,N/A,,Overcast,340,2012-12-08 18:07:00
11:56 AM,6.1,-0.0,76,30.19,-9999.0,NNW,24.2,32.2,N/A,,Overcast,340,2012-12-08 18:56:00
12:56 PM,6.1,-0.0,76,30.21,-9999.0,NNW,18.4,27.6,0.00,,Overcast,340,2012-12-08 19:56:00
1:42 PM,6.8,-0.4,72,30.05,-9999.0,NNW,17.3,-,0.00,Snow,Light Snow,340,2012-12-08 20:42:00
1:56 PM,6.1,1.0,80,30.25,-9999.0,North,19.6,-,0.00,,Overcast,350,2012-12-08 20:56:00
2:06 PM,6.8,1.4,79,30.06,-9999.0,North,15.0,-,N/A,,Overcast,350,2012-12-08 21:06:00
2:19 PM,6.8,1.4,79,30.06,-9999.0,North,15.0,-,N/A,,Overcast,350,2012-12-08 21:19:00
2:29 PM,6.8,1.4,79,30.06,-9999.0,NNW,19.6,-,N/A,,Overcast,340,2012-12-08 21:29:00
2:42 PM,6.8,1.4,79,30.06,-9999.0,North,19.6,-,N/A,,Overcast,350,2012-12-08 21:42:00
2:56 PM,8.1,1.9,76,30.26,-9999.0,North,16.1,25.3,N/A,,Overcast,360,2012-12-08 21:56:00
3:06 PM,6.8,1.4,79,30.06,-9999.0,North,17.3,-,N/A,,Overcast,360,2012-12-08 22:06:00
3:56 PM,6.1,1.0,80,30.30,-9999.0,North,9.2,-,N/A,,Overcast,360,2012-12-08 22:56:00
4:29 PM,5.0,-0.4,78,30.11,-9999.0,North,6.9,-,N/A,,Overcast,350,2012-12-08 23:29:00
4:56 PM,3.0,-0.0,87,30.34,-9999.0,NNW,9.2,-,N/A,,Mostly Cloudy,340,2012-12-08 23:56:00
5:56 PM,3.2,-0.4,85,30.13,-9999.0,NNW,5.8,-,N/A,,Scattered Clouds,330,2012-12-09 00:56:00
6:08 PM,1.4,-2.2,85,30.14,-9999.0,WSW,3.5,-,N/A,,Mostly Cloudy,250,2012-12-09 01:08:00
6:56 PM,3.2,-0.4,85,30.15,-9999.0,WNW,3.5,-,N/A,,Overcast,300,2012-12-09 01:56:00
7:56 PM,5.0,1.9,87,30.38,-9999.0,West,3.5,-,N/A,,Overcast,270,2012-12-09 02:56:00
8:56 PM,6.1,3.0,87,30.38,-9999.0,Calm,Calm,-,N/A,,Overcast,0,2012-12-09 03:56:00
9:56 PM,6.1,1.9,83,30.39,-9999.0,Calm,Calm,-,N/A,,Overcast,0,2012-12-09 04:56:00
10:56 PM,-0.0,-2.9,88,30.42,-9999.0,WSW,4.6,-,N/A,,Overcast,240,2012-12-09 05:56:00
11:24 PM,1.4,-2.2,85,30.18,-9999.0,Calm,Calm,-,N/A,,Mostly Cloudy,0,2012-12-09 06:24:00
11:43 PM,1.4,-2.2,85,30.18,-9999.0,WSW,3.5,-,N/A,,Scattered Clouds,240,2012-12-09 06:43:00
11:56 PM,-0.4,-2.2,92,30.18,-9999.0,WSW,3.5,-,N/A,,Mostly Cloudy,240,2012-12-09 06:56:00